Location: N�rnberg
(49.4471°N, 11.0632°E)
Time: 19:48:30
(UTC+01:00)

Envisat - Pass Details

Date: 25 February 2026
Orbit: 761 x 763 km, 98.4° (Epoch: 6 March)

Event Time Altitude Azimuth Distance (km) Brightness Sun altitude
Rises 05:09:58 0° 359° (N) 3,236 6.3 -19.7°
Reaches altitude 10° 05:14:02 10° 327° (NNW) 2,305 5.2 -19.0°
Enters shadow 05:14:18 10° 324° (NW) 2,275 5.2 -19.0°
